Regional Weather Roundup
Issued by NWS State College, PA

Home | Current Version | Previous Version | Graphics & Text | Print | Product List | Glossary On
Versions: 1 2 3 4 5 6 7 8 9 10 11 12 13 14 15 16 17 18 19 20 21 22 23 24 25 26 27 28 29 30 31 32 33 34 35 36 37 38 39 40 41 42 43 44 45 46 47 48 49 50
000
ASUS41 KCTP 241503
RWRCTP

REGIONAL WEATHER ROUNDUP
NATIONAL WEATHER SERVICE STATE COLLEGE PA
1100 AM EDT THU APR 24 2014

Note: "fair" indicates few or no clouds below 12,000 feet with no
significant weather and/or obstructions to visibility.

* = STATION THAT DOES NOT REPORT PRECIPITATION /E.G. RAIN...SNOW...ETC/
    THUNDER OR FOG.

PAZ002>004-007>009-013>016-020>023-029>032-241600-
WESTERN PENNSYLVANIA

CITY           SKY/WX    TMP DP  RH WIND       PRES   REMARKS
ERIE           SUNNY     44  27  51 NW6       30.19R
MEADVILLE      MOSUNNY   47  18  31 N8        30.15F
FRANKLIN*      MOSUNNY   45  16  31 NW7       30.17F
NEW CASTLE     FAIR      44  15  31 CALM      30.19F
BEAVER COUNTY  SUNNY     46  18  31 CALM      30.17F
BUTLER*        MOSUNNY   45  18  33 E3        30.18F
PITTSBURGH INT PTSUNNY   46  17  31 E6        30.17F
PITTSBURGH     MOSUNNY   49  17  28 CALM      30.15F
INDIANA*       MOSUNNY   45  18  33 NW5       30.16F
LATROBE        NOT AVBL
WASHINGTON CO* MOSUNNY   45  19  36 CALM      30.19F
$$

PAZ004>006-010>012-017>019-024>028-033>037-041-042-045-046-049>053-241600-
CENTRAL PENNSYLVANIA

CITY           SKY/WX    TMP DP  RH WIND       PRES   REMARKS
BRADFORD       SUNNY     42  15  33 N10G18    30.11R
DUBOIS         SUNNY     45  15  30 NW13      30.12S
CLEARFIELD     SUNNY     47  13  25 NW9       30.12S
JOHNSTOWN      MOSUNNY   41  17  38 NW9       30.10F
ALTOONA        SUNNY     46  18  32 NW13      30.12S
STATE COLLEGE  SUNNY     48   5  17 N14G20    30.12R
WILLIAMSPORT   SUNNY     50  14  23 NW15G25   30.08S
SELINSGROVE    SUNNY     51  19  28 N12       30.10S
FT INDIANTOWN  SUNNY     50  15  24 NW12G21   30.09R
CAPITAL CITY   SUNNY     51  16  24 NW8       30.10F
HARRISBURG     SUNNY     53  29  39 NW16G22   30.09F
YORK           SUNNY     50  18  28 NW14G23   30.10F
$$

PAZ038>040-043-044-047-048-054-055-060>062-067>071-241600-
EASTERN PENNSYLVANIA

CITY           SKY/WX    TMP DP  RH WIND       PRES   REMARKS
SCRANTON       SUNNY     48  15  26 N22G35    30.02R
MOUNT POCONO   NOT AVBL
ALLENTOWN      SUNNY     51  16  24 W16G23    30.03R
QUAKERTOWN*    SUNNY     50  18  27 W10G17    30.03S
READING        SUNNY     50  18  28 NW17G26   30.06R
LANCASTER      SUNNY     50  21  32 NW15G23   30.08S
COATESVILLE    SUNNY     48  16  27 NW20G25   30.06F
POTTSTOWN      SUNNY     50  20  30 W12G20    30.06S
BLUE BELL      SUNNY     52  19  28 NW10G16   30.03S
DOYLESTOWN     SUNNY     50  17  27 NW18G28   30.01S
WILLOW GROVE   NOT AVBL
NORTH PHILA    SUNNY     52  15  23 W16G26    30.04S
PHILADELPHIA   SUNNY     52  13  21 NW21G29   30.05F
$$



USA.gov is the U.S. government's official web portal to all federal, state and local government web resources and services.